Year,Month,Day,Hour,Minute,Value (Times are PST for temperature in C)
2018,07,04,00,00,12.90
2018,07,04,00,01,12.90
2018,07,04,00,02,12.90
2018,07,04,00,03,12.90
2018,07,04,00,04,12.90
2018,07,04,00,05,12.90
2018,07,04,00,06,12.90
2018,07,04,00,07,12.90
2018,07,04,00,08,12.80
2018,07,04,00,09,12.80
2018,07,04,00,10,12.80
2018,07,04,00,11,12.80
2018,07,04,00,12,12.80
2018,07,04,00,13,12.80
2018,07,04,00,14,12.80
2018,07,04,00,15,12.80
2018,07,04,00,16,12.80
2018,07,04,00,17,12.80
2018,07,04,00,18,12.80
2018,07,04,00,19,12.80
2018,07,04,00,20,12.80
2018,07,04,00,21,12.80
2018,07,04,00,22,12.70
2018,07,04,00,23,12.70
2018,07,04,00,24,12.70
2018,07,04,00,25,12.70
2018,07,04,00,26,12.70
2018,07,04,00,27,12.60
2018,07,04,00,28,12.60
2018,07,04,00,29,12.60
2018,07,04,00,30,12.60
2018,07,04,00,31,12.60
2018,07,04,00,32,12.60
2018,07,04,00,33,12.60
2018,07,04,00,34,12.60
2018,07,04,00,35,12.50
2018,07,04,00,36,12.50
2018,07,04,00,37,12.50
2018,07,04,00,38,12.50
2018,07,04,00,39,12.50
2018,07,04,00,40,12.50
2018,07,04,00,41,12.50
2018,07,04,00,42,12.50
2018,07,04,00,43,12.50
2018,07,04,00,44,12.60
2018,07,04,00,45,12.60
2018,07,04,00,46,12.60
2018,07,04,00,47,12.60
2018,07,04,00,48,12.60
2018,07,04,00,49,12.60
2018,07,04,00,50,12.60
2018,07,04,00,51,12.60
2018,07,04,00,52,12.70
2018,07,04,00,53,12.70
2018,07,04,00,54,12.70
2018,07,04,00,55,12.70
2018,07,04,00,56,12.70
2018,07,04,00,57,12.70
2018,07,04,00,58,12.70
2018,07,04,00,59,12.70
2018,07,04,01,00,12.70
2018,07,04,01,01,12.70
2018,07,04,01,02,12.70
2018,07,04,01,03,12.70
2018,07,04,01,04,12.70
2018,07,04,01,05,12.70
2018,07,04,01,06,12.70
2018,07,04,01,07,12.70
2018,07,04,01,08,12.70
2018,07,04,01,09,12.70
2018,07,04,01,10,12.70
2018,07,04,01,11,12.60
2018,07,04,01,12,12.60
2018,07,04,01,13,12.60
2018,07,04,01,14,12.50
2018,07,04,01,15,12.40
2018,07,04,01,16,12.40
2018,07,04,01,17,12.30
2018,07,04,01,18,12.30
2018,07,04,01,19,12.30
2018,07,04,01,20,12.30
2018,07,04,01,21,12.20
2018,07,04,01,22,12.20
2018,07,04,01,23,12.20
2018,07,04,01,24,12.20
2018,07,04,01,25,12.20
2018,07,04,01,26,12.20
2018,07,04,01,27,12.20
2018,07,04,01,28,12.20
2018,07,04,01,29,12.20
2018,07,04,01,30,12.20
2018,07,04,01,31,12.20
2018,07,04,01,32,12.20
2018,07,04,01,33,12.20
2018,07,04,01,34,12.10
2018,07,04,01,35,12.10
2018,07,04,01,36,12.10
2018,07,04,01,37,12.00
2018,07,04,01,38,12.00
2018,07,04,01,39,11.90
2018,07,04,01,40,11.90
2018,07,04,01,41,11.90
2018,07,04,01,42,11.90
2018,07,04,01,43,11.80
2018,07,04,01,44,11.80
2018,07,04,01,45,11.80
2018,07,04,01,46,11.80
2018,07,04,01,47,11.80
2018,07,04,01,48,11.80
2018,07,04,01,49,11.80
2018,07,04,01,50,11.90
2018,07,04,01,51,11.90
2018,07,04,01,52,11.90
2018,07,04,01,53,12.00
2018,07,04,01,54,12.00
2018,07,04,01,55,12.00
2018,07,04,01,56,12.00
2018,07,04,01,57,12.00
2018,07,04,01,58,12.00
2018,07,04,01,59,12.00
2018,07,04,02,00,12.00
2018,07,04,02,01,12.00
2018,07,04,02,02,12.00
2018,07,04,02,03,12.00
2018,07,04,02,04,12.00
2018,07,04,02,05,12.00
2018,07,04,02,06,12.00
2018,07,04,02,07,12.00
2018,07,04,02,08,12.00
2018,07,04,02,09,12.00
2018,07,04,02,10,12.00
2018,07,04,02,11,12.00
2018,07,04,02,12,12.00
2018,07,04,02,13,11.90
2018,07,04,02,14,11.90
2018,07,04,02,15,11.90
2018,07,04,02,16,12.00
2018,07,04,02,17,11.90
2018,07,04,02,18,11.90
2018,07,04,02,19,12.00
2018,07,04,02,20,11.90
2018,07,04,02,21,11.90
2018,07,04,02,22,11.90
2018,07,04,02,23,11.90
2018,07,04,02,24,11.90
2018,07,04,02,25,11.90
2018,07,04,02,26,11.90
2018,07,04,02,27,11.80
2018,07,04,02,28,11.80
2018,07,04,02,29,11.80
2018,07,04,02,30,11.80
2018,07,04,02,31,11.70
2018,07,04,02,32,11.70
2018,07,04,02,33,11.70
2018,07,04,02,34,11.70
2018,07,04,02,35,11.70
2018,07,04,02,36,11.70
2018,07,04,02,37,11.80
2018,07,04,02,38,11.90
2018,07,04,02,39,12.00
2018,07,04,02,40,12.10
2018,07,04,02,41,12.40
2018,07,04,02,42,12.50
2018,07,04,02,43,12.70
2018,07,04,02,44,12.80
2018,07,04,02,45,13.00
2018,07,04,02,46,13.20
2018,07,04,02,47,13.40
2018,07,04,02,48,13.50
2018,07,04,02,49,13.70
2018,07,04,02,50,13.80
2018,07,04,02,51,13.90
2018,07,04,02,52,14.00
2018,07,04,02,53,14.10
2018,07,04,02,54,14.20
2018,07,04,02,55,14.30
2018,07,04,02,56,14.30
2018,07,04,02,57,14.50
2018,07,04,02,58,14.60
2018,07,04,02,59,14.60
2018,07,04,03,00,14.70
2018,07,04,03,01,14.70
2018,07,04,03,02,14.80
2018,07,04,03,03,14.80
2018,07,04,03,04,14.80
2018,07,04,03,05,14.80
2018,07,04,03,06,14.80
2018,07,04,03,07,14.80
2018,07,04,03,08,14.80
2018,07,04,03,09,14.80
2018,07,04,03,10,14.70
2018,07,04,03,11,14.70
2018,07,04,03,12,14.60
2018,07,04,03,13,14.60
2018,07,04,03,14,14.50
2018,07,04,03,15,14.50
2018,07,04,03,16,14.40
2018,07,04,03,17,14.40
2018,07,04,03,18,14.40
2018,07,04,03,19,14.40
2018,07,04,03,20,14.40
2018,07,04,03,21,14.40
2018,07,04,03,22,14.40
2018,07,04,03,23,14.30
2018,07,04,03,24,14.30
2018,07,04,03,25,14.30
2018,07,04,03,26,14.30
2018,07,04,03,27,14.30
2018,07,04,03,28,14.20
2018,07,04,03,29,14.20
2018,07,04,03,30,14.20
2018,07,04,03,31,14.20
2018,07,04,03,32,14.10
2018,07,04,03,33,14.10
2018,07,04,03,34,14.10
2018,07,04,03,35,14.10
2018,07,04,03,36,14.00
2018,07,04,03,37,14.00
2018,07,04,03,38,14.00
2018,07,04,03,39,14.00
2018,07,04,03,40,14.00
2018,07,04,03,41,14.10
2018,07,04,03,42,14.10
2018,07,04,03,43,14.10
2018,07,04,03,44,14.10
2018,07,04,03,45,14.10
2018,07,04,03,46,14.10
2018,07,04,03,47,14.20
2018,07,04,03,48,14.20
2018,07,04,03,49,14.10
2018,07,04,03,50,14.10
2018,07,04,03,51,14.10
2018,07,04,03,52,14.10
2018,07,04,03,53,14.10
2018,07,04,03,54,14.10
2018,07,04,03,55,14.00
2018,07,04,03,56,14.00
2018,07,04,03,57,14.00
2018,07,04,03,58,13.90
2018,07,04,03,59,13.90
2018,07,04,04,00,13.90
2018,07,04,04,01,13.80
2018,07,04,04,02,13.80
2018,07,04,04,03,13.80
2018,07,04,04,04,13.70
2018,07,04,04,05,13.70
2018,07,04,04,06,13.70
2018,07,04,04,07,13.60
2018,07,04,04,08,13.60
2018,07,04,04,09,13.60
2018,07,04,04,10,13.50
2018,07,04,04,11,13.50
2018,07,04,04,12,13.40
2018,07,04,04,13,13.30
2018,07,04,04,14,13.30
2018,07,04,04,15,13.20
2018,07,04,04,16,13.10
2018,07,04,04,17,13.00
2018,07,04,04,18,13.00
2018,07,04,04,19,12.90
2018,07,04,04,20,12.80
2018,07,04,04,21,12.80
2018,07,04,04,22,12.70
2018,07,04,04,23,12.70
2018,07,04,04,24,12.70
2018,07,04,04,25,12.60
2018,07,04,04,26,12.60
2018,07,04,04,27,12.60
2018,07,04,04,28,12.50
2018,07,04,04,29,12.50
2018,07,04,04,30,12.50
2018,07,04,04,31,12.50
2018,07,04,04,32,12.50
2018,07,04,04,33,12.50
2018,07,04,04,34,12.50
2018,07,04,04,35,12.50
2018,07,04,04,36,12.60
2018,07,04,04,37,12.60
2018,07,04,04,38,12.70
2018,07,04,04,39,12.70
2018,07,04,04,40,12.70
2018,07,04,04,41,12.80
2018,07,04,04,42,12.80
2018,07,04,04,43,12.80
2018,07,04,04,44,12.90
2018,07,04,04,45,12.90
2018,07,04,04,46,12.90
2018,07,04,04,47,12.90
2018,07,04,04,48,12.90
2018,07,04,04,49,12.90
2018,07,04,04,50,12.80
2018,07,04,04,51,12.80
2018,07,04,04,52,12.80
2018,07,04,04,53,12.90
2018,07,04,04,54,12.90
2018,07,04,04,55,13.00
2018,07,04,04,56,13.00
2018,07,04,04,57,13.10
2018,07,04,04,58,13.10
2018,07,04,04,59,13.10
2018,07,04,05,00,13.10
2018,07,04,05,01,13.10
2018,07,04,05,02,13.10
2018,07,04,05,03,13.20
2018,07,04,05,04,13.20
2018,07,04,05,05,13.20
2018,07,04,05,06,13.20
2018,07,04,05,07,13.20
2018,07,04,05,08,13.10
2018,07,04,05,09,13.00
2018,07,04,05,10,13.00
2018,07,04,05,11,12.80
2018,07,04,05,12,12.80
2018,07,04,05,13,12.70
2018,07,04,05,14,12.60
2018,07,04,05,15,12.50
2018,07,04,05,16,12.50
2018,07,04,05,17,12.40
2018,07,04,05,18,12.30
2018,07,04,05,19,12.30
2018,07,04,05,20,12.30
2018,07,04,05,21,12.20
2018,07,04,05,22,12.20
2018,07,04,05,23,12.10
2018,07,04,05,24,12.10
2018,07,04,05,25,12.10
2018,07,04,05,26,12.10
2018,07,04,05,27,12.00
2018,07,04,05,28,12.00
2018,07,04,05,29,12.00
2018,07,04,05,30,12.00
2018,07,04,05,31,11.90
2018,07,04,05,32,11.90
2018,07,04,05,33,11.90
2018,07,04,05,34,11.80
2018,07,04,05,35,11.80
2018,07,04,05,36,11.80
2018,07,04,05,37,11.70
2018,07,04,05,38,11.70
2018,07,04,05,39,11.70
2018,07,04,05,40,11.60
2018,07,04,05,41,11.60
2018,07,04,05,42,11.60
2018,07,04,05,43,11.60
2018,07,04,05,44,11.60
2018,07,04,05,45,11.50
2018,07,04,05,46,11.50
2018,07,04,05,47,11.50
2018,07,04,05,48,11.50
2018,07,04,05,49,11.50
2018,07,04,05,50,11.50
2018,07,04,05,51,11.50
2018,07,04,05,52,11.50
2018,07,04,05,53,11.50
2018,07,04,05,54,11.60
2018,07,04,05,55,11.60
2018,07,04,05,56,11.70
2018,07,04,05,57,11.80
2018,07,04,05,58,11.80
2018,07,04,05,59,11.80
2018,07,04,06,00,11.90
2018,07,04,06,01,11.90
2018,07,04,06,02,11.90
2018,07,04,06,03,11.90
2018,07,04,06,04,11.90
2018,07,04,06,05,12.00
2018,07,04,06,06,12.10
2018,07,04,06,07,12.30
2018,07,04,06,08,12.50
2018,07,04,06,09,12.70
2018,07,04,06,10,13.00
2018,07,04,06,11,13.30
2018,07,04,06,12,13.60
2018,07,04,06,13,13.70
2018,07,04,06,14,13.90
2018,07,04,06,15,14.10
2018,07,04,06,16,14.30
2018,07,04,06,17,14.40
2018,07,04,06,18,14.60
2018,07,04,06,19,14.70
2018,07,04,06,20,14.80
2018,07,04,06,21,14.90
2018,07,04,06,22,15.00
2018,07,04,06,23,15.10
2018,07,04,06,24,15.20
2018,07,04,06,25,15.30
2018,07,04,06,26,15.30
2018,07,04,06,27,15.40
2018,07,04,06,28,15.40
2018,07,04,06,29,15.50
2018,07,04,06,30,15.60
2018,07,04,06,31,15.60
2018,07,04,06,32,15.70
2018,07,04,06,33,15.70
2018,07,04,06,34,15.70
2018,07,04,06,35,15.80
2018,07,04,06,36,15.80
2018,07,04,06,37,15.80
2018,07,04,06,38,15.90
2018,07,04,06,39,15.90
2018,07,04,06,40,15.90
2018,07,04,06,41,15.90
2018,07,04,06,42,16.00
2018,07,04,06,43,16.00
2018,07,04,06,44,16.00
2018,07,04,06,45,16.10
2018,07,04,06,46,16.10
2018,07,04,06,47,16.10
2018,07,04,06,48,16.20
2018,07,04,06,49,16.20
2018,07,04,06,50,16.20
2018,07,04,06,51,16.20
2018,07,04,06,52,16.30
2018,07,04,06,53,16.30
2018,07,04,06,54,16.30
2018,07,04,06,55,16.40
2018,07,04,06,56,16.40
2018,07,04,06,57,16.50
2018,07,04,06,58,16.50
2018,07,04,06,59,16.60
2018,07,04,07,00,16.60
2018,07,04,07,01,16.70
2018,07,04,07,02,16.70
2018,07,04,07,03,16.80
2018,07,04,07,04,16.80
2018,07,04,07,05,16.90
2018,07,04,07,06,16.90
2018,07,04,07,07,17.00
2018,07,04,07,08,17.00
2018,07,04,07,09,17.10
2018,07,04,07,10,17.10
2018,07,04,07,11,17.10
2018,07,04,07,12,17.20
2018,07,04,07,13,17.20
2018,07,04,07,14,17.20
2018,07,04,07,15,17.30
2018,07,04,07,16,17.30
2018,07,04,07,17,17.30
2018,07,04,07,18,17.40
2018,07,04,07,19,17.40
2018,07,04,07,20,17.50
2018,07,04,07,21,17.50
2018,07,04,07,22,17.50
2018,07,04,07,23,17.60
2018,07,04,07,24,17.60
2018,07,04,07,25,17.60
2018,07,04,07,26,17.70
2018,07,04,07,27,17.70
2018,07,04,07,28,17.70
2018,07,04,07,29,17.80
2018,07,04,07,30,17.80
2018,07,04,07,31,17.80
2018,07,04,07,32,17.80
2018,07,04,07,33,17.90
2018,07,04,07,34,17.90
2018,07,04,07,35,17.90
2018,07,04,07,36,17.90
2018,07,04,07,37,17.90
2018,07,04,07,38,17.90
2018,07,04,07,39,17.90
2018,07,04,07,40,17.90
2018,07,04,07,41,17.90
2018,07,04,07,42,18.00
2018,07,04,07,43,18.10
2018,07,04,07,44,18.10
2018,07,04,07,45,18.10
2018,07,04,07,46,18.10
2018,07,04,07,47,18.10
2018,07,04,07,48,18.10
2018,07,04,07,49,18.10
2018,07,04,07,50,18.10
2018,07,04,07,51,18.10
2018,07,04,07,52,18.10
2018,07,04,07,53,18.10
2018,07,04,07,54,18.10
2018,07,04,07,55,18.10
2018,07,04,07,56,18.20
2018,07,04,07,57,18.20
2018,07,04,07,58,18.20
2018,07,04,07,59,18.20
2018,07,04,08,00,18.20
2018,07,04,08,01,18.20
2018,07,04,08,02,18.20
2018,07,04,08,03,18.20
2018,07,04,08,04,18.20
2018,07,04,08,05,18.20
2018,07,04,08,06,18.30
2018,07,04,08,07,18.30
2018,07,04,08,08,18.30
2018,07,04,08,09,18.30
2018,07,04,08,10,18.30
2018,07,04,08,11,18.30
2018,07,04,08,12,18.30
2018,07,04,08,13,18.30
2018,07,04,08,14,18.40
2018,07,04,08,15,18.40
2018,07,04,08,16,18.40
2018,07,04,08,17,18.40
2018,07,04,08,18,18.40
2018,07,04,08,19,18.40
2018,07,04,08,20,18.30
2018,07,04,08,21,18.30
2018,07,04,08,22,18.30
2018,07,04,08,23,18.20
2018,07,04,08,24,18.20
2018,07,04,08,25,18.10
2018,07,04,08,26,18.10
2018,07,04,08,27,18.10
2018,07,04,08,28,18.20
2018,07,04,08,29,18.20
2018,07,04,08,30,18.30
2018,07,04,08,31,18.30
2018,07,04,08,32,18.40
2018,07,04,08,33,18.40
2018,07,04,08,34,18.40
2018,07,04,08,35,18.40
2018,07,04,08,36,18.40
2018,07,04,08,37,18.40
2018,07,04,08,38,18.40
2018,07,04,08,39,18.40
2018,07,04,08,40,18.40
2018,07,04,08,41,18.40
2018,07,04,08,42,18.50
2018,07,04,08,43,18.50
2018,07,04,08,44,18.50
2018,07,04,08,45,18.50
2018,07,04,08,46,18.60
2018,07,04,08,47,18.60
2018,07,04,08,48,18.70
2018,07,04,08,49,18.70
2018,07,04,08,50,18.70
2018,07,04,08,51,18.80
2018,07,04,08,52,18.70
2018,07,04,08,53,18.70
2018,07,04,08,54,18.60
2018,07,04,08,55,18.60
2018,07,04,08,56,18.70
2018,07,04,08,57,18.70
2018,07,04,08,58,18.70
2018,07,04,08,59,18.80
2018,07,04,09,00,18.80
2018,07,04,09,01,18.80
2018,07,04,09,02,18.80
2018,07,04,09,03,18.80
2018,07,04,09,04,18.80
2018,07,04,09,05,18.80
2018,07,04,09,06,18.80
2018,07,04,09,07,18.80
2018,07,04,09,08,18.90
2018,07,04,09,09,19.00
2018,07,04,09,10,19.00
2018,07,04,09,11,19.10
2018,07,04,09,12,19.20
2018,07,04,09,13,19.30
2018,07,04,09,14,19.30
2018,07,04,09,15,19.40
2018,07,04,09,16,19.40
2018,07,04,09,17,19.40
2018,07,04,09,18,19.40
2018,07,04,09,19,19.50
2018,07,04,09,20,19.50
2018,07,04,09,21,19.60
2018,07,04,09,22,19.60
2018,07,04,09,23,19.70
2018,07,04,09,24,19.70
2018,07,04,09,25,19.80
2018,07,04,09,26,19.80
2018,07,04,09,27,19.70
2018,07,04,09,28,19.80
2018,07,04,09,29,19.80
2018,07,04,09,30,19.80
2018,07,04,09,31,19.80
2018,07,04,09,32,19.90
2018,07,04,09,33,19.90
2018,07,04,09,34,19.80
2018,07,04,09,35,19.80
2018,07,04,09,36,19.70
2018,07,04,09,37,19.60
2018,07,04,09,38,19.50
2018,07,04,09,39,19.50
2018,07,04,09,40,19.40
2018,07,04,09,41,19.40
2018,07,04,09,42,19.40
2018,07,04,09,43,19.40
2018,07,04,09,44,19.40
2018,07,04,09,45,19.40
2018,07,04,09,46,19.30
2018,07,04,09,47,19.30
2018,07,04,09,48,19.30
2018,07,04,09,49,19.30
2018,07,04,09,50,19.30
2018,07,04,09,51,19.40
2018,07,04,09,52,19.40
2018,07,04,09,53,19.50
2018,07,04,09,54,19.40
2018,07,04,09,55,19.40
2018,07,04,09,56,19.40
2018,07,04,09,57,19.50
2018,07,04,09,58,19.50
2018,07,04,09,59,19.60
2018,07,04,10,00,19.60
2018,07,04,10,01,19.60
2018,07,04,10,02,19.60
2018,07,04,10,03,19.70
2018,07,04,10,04,19.70
2018,07,04,10,05,19.70
2018,07,04,10,06,19.70
2018,07,04,10,07,19.70
2018,07,04,10,08,19.70
2018,07,04,10,09,19.80
2018,07,04,10,10,19.90
2018,07,04,10,11,19.90
2018,07,04,10,12,19.90
2018,07,04,10,13,19.90
2018,07,04,10,14,19.90
2018,07,04,10,15,19.90
2018,07,04,10,16,19.90
2018,07,04,10,17,19.90
2018,07,04,10,18,19.90
2018,07,04,10,19,19.90
2018,07,04,10,20,19.90
2018,07,04,10,21,20.00
2018,07,04,10,22,20.00
2018,07,04,10,23,20.10
2018,07,04,10,24,20.10
2018,07,04,10,25,20.10
2018,07,04,10,26,20.10
2018,07,04,10,27,20.20
2018,07,04,10,28,20.20
2018,07,04,10,29,20.30
2018,07,04,10,30,20.30
2018,07,04,10,31,20.30
2018,07,04,10,32,20.30
2018,07,04,10,33,20.30
2018,07,04,10,34,20.30
2018,07,04,10,35,20.30
2018,07,04,10,36,20.30
2018,07,04,10,37,20.40
2018,07,04,10,38,20.40
2018,07,04,10,39,20.40
2018,07,04,10,40,20.40
2018,07,04,10,41,20.50
2018,07,04,10,42,20.60
2018,07,04,10,43,20.60
2018,07,04,10,44,20.60
2018,07,04,10,45,20.60
2018,07,04,10,46,20.60
2018,07,04,10,47,20.60
2018,07,04,10,48,20.60
2018,07,04,10,49,20.60
2018,07,04,10,50,20.50
2018,07,04,10,51,20.60
2018,07,04,10,52,20.60
2018,07,04,10,53,20.60
2018,07,04,10,54,20.60
2018,07,04,10,55,20.60
2018,07,04,10,56,20.70
2018,07,04,10,57,20.70
2018,07,04,10,58,20.80
2018,07,04,10,59,20.80
2018,07,04,11,00,20.90
2018,07,04,11,01,20.90
2018,07,04,11,02,20.80
2018,07,04,11,03,20.80
2018,07,04,11,04,20.80
2018,07,04,11,05,20.80
2018,07,04,11,06,20.70
2018,07,04,11,07,20.70
2018,07,04,11,08,20.70
2018,07,04,11,09,20.70
2018,07,04,11,10,20.70
2018,07,04,11,11,20.80
2018,07,04,11,12,20.80
2018,07,04,11,13,20.80
2018,07,04,11,14,20.80
2018,07,04,11,15,20.90
2018,07,04,11,16,20.90
2018,07,04,11,17,20.90
2018,07,04,11,18,20.90
2018,07,04,11,19,20.90
2018,07,04,11,20,20.90
2018,07,04,11,21,20.90
2018,07,04,11,22,20.90
2018,07,04,11,23,20.90
2018,07,04,11,24,20.80
2018,07,04,11,25,20.80
2018,07,04,11,26,20.80
2018,07,04,11,27,20.80
2018,07,04,11,28,20.80
2018,07,04,11,29,20.80
2018,07,04,11,30,20.80
2018,07,04,11,31,20.90
2018,07,04,11,32,20.90
2018,07,04,11,33,20.90
2018,07,04,11,34,20.90
2018,07,04,11,35,21.00
2018,07,04,11,36,21.10
2018,07,04,11,37,21.00
2018,07,04,11,38,21.00
2018,07,04,11,39,21.00
2018,07,04,11,40,21.00
2018,07,04,11,41,21.00
2018,07,04,11,42,21.10
2018,07,04,11,43,21.10
2018,07,04,11,44,21.10
2018,07,04,11,45,21.10
2018,07,04,11,46,21.10
2018,07,04,11,47,21.00
2018,07,04,11,48,21.10
2018,07,04,11,49,21.10
2018,07,04,11,50,21.20
2018,07,04,11,51,21.20
2018,07,04,11,52,21.30
2018,07,04,11,53,21.20
2018,07,04,11,54,21.30
2018,07,04,11,55,21.30
2018,07,04,11,56,21.30
2018,07,04,11,57,21.30
2018,07,04,11,58,21.40
2018,07,04,11,59,21.50
2018,07,04,12,00,21.60
2018,07,04,12,01,21.60
2018,07,04,12,02,21.70
2018,07,04,12,03,21.60
2018,07,04,12,04,21.60
2018,07,04,12,05,21.70
2018,07,04,12,06,21.70
2018,07,04,12,07,21.80
2018,07,04,12,08,21.90
2018,07,04,12,09,21.90
2018,07,04,12,10,21.90
2018,07,04,12,11,22.00
2018,07,04,12,12,22.00
2018,07,04,12,13,21.90
2018,07,04,12,14,21.90
2018,07,04,12,15,21.90
2018,07,04,12,16,21.90
2018,07,04,12,17,22.00
2018,07,04,12,18,22.00
2018,07,04,12,19,22.10
2018,07,04,12,20,22.20
2018,07,04,12,21,22.20
2018,07,04,12,22,22.20
2018,07,04,12,23,22.20
2018,07,04,12,24,22.20
2018,07,04,12,25,22.30
2018,07,04,12,26,22.30
2018,07,04,12,27,22.30
2018,07,04,12,28,22.30
2018,07,04,12,29,22.40
2018,07,04,12,30,22.30
2018,07,04,12,31,22.40
2018,07,04,12,32,22.50
2018,07,04,12,33,22.50
2018,07,04,12,34,22.60
2018,07,04,12,35,22.50
2018,07,04,12,36,22.40
2018,07,04,12,37,22.40
2018,07,04,12,38,22.30
2018,07,04,12,39,22.20
2018,07,04,12,40,22.10
2018,07,04,12,41,22.10
2018,07,04,12,42,22.20
2018,07,04,12,43,22.20
2018,07,04,12,44,22.10
2018,07,04,12,45,22.00
2018,07,04,12,46,21.90
2018,07,04,12,47,21.90
2018,07,04,12,48,22.00
2018,07,04,12,49,22.00
2018,07,04,12,50,22.10
2018,07,04,12,51,22.10
2018,07,04,12,52,22.20
2018,07,04,12,53,22.30
2018,07,04,12,54,22.40
2018,07,04,12,55,22.50
2018,07,04,12,56,22.60
2018,07,04,12,57,22.70
2018,07,04,12,58,22.80
2018,07,04,12,59,22.90
2018,07,04,13,00,22.90
2018,07,04,13,01,23.00
2018,07,04,13,02,22.90
2018,07,04,13,03,22.80
2018,07,04,13,04,22.70
2018,07,04,13,05,22.60
2018,07,04,13,06,22.60
2018,07,04,13,07,22.70
2018,07,04,13,08,22.70
2018,07,04,13,09,22.70
2018,07,04,13,10,22.70
2018,07,04,13,11,22.80
2018,07,04,13,12,22.80
2018,07,04,13,13,22.80
2018,07,04,13,14,22.80
2018,07,04,13,15,22.80
2018,07,04,13,16,22.80
2018,07,04,13,17,22.90
2018,07,04,13,18,22.90
2018,07,04,13,19,22.90
2018,07,04,13,20,23.00
2018,07,04,13,21,23.10
2018,07,04,13,22,23.20
2018,07,04,13,23,23.20
2018,07,04,13,24,23.20
2018,07,04,13,25,23.20
2018,07,04,13,26,23.20
2018,07,04,13,27,23.30
2018,07,04,13,28,23.30
2018,07,04,13,29,23.40
2018,07,04,13,30,23.50
2018,07,04,13,31,23.60
2018,07,04,13,32,23.60
2018,07,04,13,33,23.70
2018,07,04,13,34,23.60
2018,07,04,13,35,23.60
2018,07,04,13,36,23.50
2018,07,04,13,37,23.40
2018,07,04,13,38,23.30
2018,07,04,13,39,23.20
2018,07,04,13,40,23.20
2018,07,04,13,41,23.20
2018,07,04,13,42,23.20
2018,07,04,13,43,23.20
2018,07,04,13,44,23.30
2018,07,04,13,45,23.30
2018,07,04,13,46,23.30
2018,07,04,13,47,23.30
2018,07,04,13,48,23.30
2018,07,04,13,49,23.30
2018,07,04,13,50,23.30
2018,07,04,13,51,23.40
2018,07,04,13,52,23.40
2018,07,04,13,53,23.40
2018,07,04,13,54,23.40
2018,07,04,13,55,23.50
2018,07,04,13,56,23.50
2018,07,04,13,57,23.60
2018,07,04,13,58,23.70
2018,07,04,13,59,23.70
2018,07,04,14,00,23.70
2018,07,04,14,01,23.70
2018,07,04,14,02,23.60
2018,07,04,14,03,23.50
2018,07,04,14,04,23.40
2018,07,04,14,05,23.40
2018,07,04,14,06,23.30
2018,07,04,14,07,23.20
2018,07,04,14,08,23.20
2018,07,04,14,09,23.30
2018,07,04,14,10,23.30
2018,07,04,14,11,23.40
2018,07,04,14,12,23.50
2018,07,04,14,13,23.60
2018,07,04,14,14,23.70
2018,07,04,14,15,23.70
2018,07,04,14,16,23.80
2018,07,04,14,17,23.90
2018,07,04,14,18,23.90
2018,07,04,14,19,23.80
2018,07,04,14,20,23.90
2018,07,04,14,21,24.00
2018,07,04,14,22,24.00
2018,07,04,14,23,23.90
2018,07,04,14,24,24.00
2018,07,04,14,25,24.00
2018,07,04,14,26,24.00
2018,07,04,14,27,24.10
2018,07,04,14,28,24.10
2018,07,04,14,29,24.10
2018,07,04,14,30,24.10
2018,07,04,14,31,24.10
2018,07,04,14,32,24.10
2018,07,04,14,33,24.20
2018,07,04,14,34,24.20
2018,07,04,14,35,24.20
2018,07,04,14,36,24.20
2018,07,04,14,37,24.20
2018,07,04,14,38,24.20
2018,07,04,14,39,24.30
2018,07,04,14,40,24.30
2018,07,04,14,41,24.40
2018,07,04,14,42,24.50
2018,07,04,14,43,24.50
2018,07,04,14,44,24.60
2018,07,04,14,45,24.50
2018,07,04,14,46,24.50
2018,07,04,14,47,24.40
2018,07,04,14,48,24.40
2018,07,04,14,49,24.30
2018,07,04,14,50,24.30
2018,07,04,14,51,24.30
2018,07,04,14,52,24.30
2018,07,04,14,53,24.30
2018,07,04,14,54,24.40
2018,07,04,14,55,24.50
2018,07,04,14,56,24.50
2018,07,04,14,57,24.60
2018,07,04,14,58,24.60
2018,07,04,14,59,24.60
2018,07,04,15,00,24.60
2018,07,04,15,01,24.60
2018,07,04,15,02,24.60
2018,07,04,15,03,24.60
2018,07,04,15,04,24.50
2018,07,04,15,05,24.50
2018,07,04,15,06,24.60
2018,07,04,15,07,24.50
2018,07,04,15,08,24.50
2018,07,04,15,09,24.40
2018,07,04,15,10,24.40
2018,07,04,15,11,24.30
2018,07,04,15,12,24.20
2018,07,04,15,13,24.20
2018,07,04,15,14,24.30
2018,07,04,15,15,24.30
2018,07,04,15,16,24.30
2018,07,04,15,17,24.30
2018,07,04,15,18,24.40
2018,07,04,15,19,24.40
2018,07,04,15,20,24.40
2018,07,04,15,21,24.40
2018,07,04,15,22,24.40
2018,07,04,15,23,24.40
2018,07,04,15,24,24.40
2018,07,04,15,25,24.40
2018,07,04,15,26,24.40
2018,07,04,15,27,24.40
2018,07,04,15,28,24.40
2018,07,04,15,29,24.30
2018,07,04,15,30,24.30
2018,07,04,15,31,24.30
2018,07,04,15,32,24.30
2018,07,04,15,33,24.30
2018,07,04,15,34,24.30
2018,07,04,15,35,24.20
2018,07,04,15,36,24.20
2018,07,04,15,37,24.20
2018,07,04,15,38,24.20
2018,07,04,15,39,24.20
2018,07,04,15,40,24.10
2018,07,04,15,41,24.10
2018,07,04,15,42,24.10
2018,07,04,15,43,24.10
2018,07,04,15,44,24.20
2018,07,04,15,45,24.20
2018,07,04,15,46,24.20
2018,07,04,15,47,24.20
2018,07,04,15,48,24.20
2018,07,04,15,49,24.20
2018,07,04,15,50,24.20
2018,07,04,15,51,24.30
2018,07,04,15,52,24.30
2018,07,04,15,53,24.30
2018,07,04,15,54,24.40
2018,07,04,15,55,24.40
2018,07,04,15,56,24.40
2018,07,04,15,57,24.40
2018,07,04,15,58,24.50
2018,07,04,15,59,24.50
2018,07,04,16,00,24.50
2018,07,04,16,01,24.50
2018,07,04,16,02,24.60
2018,07,04,16,03,24.60
2018,07,04,16,04,24.60
2018,07,04,16,05,24.60
2018,07,04,16,06,24.60
2018,07,04,16,07,24.60
2018,07,04,16,08,24.60
2018,07,04,16,09,24.60
2018,07,04,16,10,24.60
2018,07,04,16,11,24.70
2018,07,04,16,12,24.70
2018,07,04,16,13,24.80
2018,07,04,16,14,24.80
2018,07,04,16,15,24.90
2018,07,04,16,16,24.90
2018,07,04,16,17,25.00
2018,07,04,16,18,25.10
2018,07,04,16,19,25.10
2018,07,04,16,20,25.10
2018,07,04,16,21,25.10
2018,07,04,16,22,25.10
2018,07,04,16,23,25.10
2018,07,04,16,24,25.00
2018,07,04,16,25,25.00
2018,07,04,16,26,25.00
2018,07,04,16,27,25.00
2018,07,04,16,28,25.00
2018,07,04,16,29,25.00
2018,07,04,16,30,24.90
2018,07,04,16,31,24.90
2018,07,04,16,32,24.90
2018,07,04,16,33,24.90
2018,07,04,16,34,24.90
2018,07,04,16,35,24.90
2018,07,04,16,36,24.90
2018,07,04,16,37,24.90
2018,07,04,16,38,24.90
2018,07,04,16,39,24.90
2018,07,04,16,40,24.90
2018,07,04,16,41,24.90
2018,07,04,16,42,24.80
2018,07,04,16,43,24.80
2018,07,04,16,44,24.80
2018,07,04,16,45,24.80
2018,07,04,16,46,24.80
2018,07,04,16,47,24.80
2018,07,04,16,48,24.80
2018,07,04,16,49,24.80
2018,07,04,16,50,24.80
2018,07,04,16,51,24.80
2018,07,04,16,52,24.80
2018,07,04,16,53,24.80
2018,07,04,16,54,24.80
2018,07,04,16,55,24.80
2018,07,04,16,56,24.80
2018,07,04,16,57,24.50
2018,07,04,16,58,24.30
2018,07,04,16,59,24.00
2018,07,04,17,00,23.70
2018,07,04,17,01,23.40
2018,07,04,17,02,23.30
2018,07,04,17,03,23.10
2018,07,04,17,04,23.10
2018,07,04,17,05,23.00
2018,07,04,17,06,23.00
2018,07,04,17,07,23.10
2018,07,04,17,08,23.10
2018,07,04,17,09,23.20
2018,07,04,17,10,23.20
2018,07,04,17,11,23.30
2018,07,04,17,12,23.30
2018,07,04,17,13,23.30
2018,07,04,17,14,23.30
2018,07,04,17,15,23.20
2018,07,04,17,16,23.00
2018,07,04,17,17,22.80
2018,07,04,17,18,22.70
2018,07,04,17,19,22.40